User: anonymous   Login
Location: Caltech
(34.1382°N, 118.1253°W)
Time: 02:01:37
(UTC-08:00)
Language:

OPAL - Orbit

View from above orbital plane
View from above orbital plane
View from above satellite
View from above satellite

Ground track
Ground track

The orbit data is extracted from the following two-line orbital elements,

1 26063U 00004C   16045.17206070  .00000079  00000-0  46619-4 0  9996
2 26063 100.1911 313.0954 0035845 247.1700 112.5693 14.36598082841166
Epoch (UTC): 14 February 2016 04:07:46
Eccentricity: 0.0035845
inclination: 100.1911°
perigee height: 744 km
apogee height: 795 km
right ascension of ascending node: 313.0954°
argument of perigee: 247.1700°
revolutions per day: 14.36598082
mean anomaly at epoch: 112.5693°
orbit number at epoch: 84116

The dashed part of the orbit path shows where the satellite is in the earth's shadow,  

DLR